This is the latest recevied weather packets stored in our database for station/object KJ4HF. If no packets are shown the sender has not sent any weather packets the latest 10 day(s).
| Time | Temp. | Humidity | Pressure | Rain* | Wind** | Luminosity | Snow |
|---|---|---|---|---|---|---|---|
| 1777642256 | 11.67° C | 62% | 1016.2 hPa | 0 mm | - | 223 W/m² | - |
| 1777638670 | 10.56° C | 66% | 1015.8 hPa | 0 mm | - | 104 W/m² | - |
| 1777635641 | 10.56° C | 71% | 1016.1 hPa | 0 mm | - | 42 W/m² | - |
| 1777634742 | 10° C | 70% | 1016 hPa | 0 mm | - | 60 W/m² | - |
| 1777634149 | 10° C | 69% | 1015.8 hPa | 0 mm | - | 30 W/m² | - |
| 1777630550 | 10° C | 66% | 1015.1 hPa | 0 mm | - | 0 W/m² | - |
| 1777629342 | 10.56° C | 63% | 1015 hPa | 0 mm | - | 0 W/m² | - |
| 1777629042 | 10.56° C | 63% | 1015 hPa | 0 mm | - | 0 W/m² | - |
| 1777628764 | 10.56° C | 63% | 1015 hPa | 0 mm | - | 0 W/m² | - |
| 1777627847 | 11.11° C | 59% | 1015 hPa | 0 mm | - | 0 W/m² | - |
| 1777626641 | 11.11° C | 60% | 1014.7 hPa | 0 mm | - | 0 W/m² | - |
| 1777623352 | 11.67° C | 60% | 1014.9 hPa | 0 mm | - | 0 W/m² | - |
| 1777622742 | 11.67° C | 61% | 1014.7 hPa | 0 mm | - | 0 W/m² | - |
| 1777622453 | 11.67° C | 61% | 1014.8 hPa | 0 mm | - | 0 W/m² | - |
| 1777621841 | 11.67° C | 60% | 1015 hPa | 0 mm | - | 0 W/m² | - |
| 1777619745 | 11.67° C | 62% | 1014.7 hPa | 0 mm | - | 0 W/m² | - |
| 1777618241 | 11.67° C | 61% | 1014.6 hPa | 0 mm | - | 0 W/m² | - |
| 1777617343 | 11.67° C | 64% | 1014.6 hPa | 0 mm | - | 0 W/m² | - |
| 1777614943 | 11.67° C | 65% | 1014.8 hPa | 0 mm | - | 0 W/m² | - |
| 1777613743 | 11.67° C | 61% | 1014.7 hPa | 0 mm | - | 0 W/m² | - |
| 1777613449 | 11.67° C | 60% | 1014.6 hPa | 0 mm | - | 0 W/m² | - |
| 1777612842 | 11.67° C | 62% | 1014.5 hPa | 0 mm | - | 0 W/m² | - |
| 1777611651 | 11.11° C | 61% | 1014.3 hPa | 0 mm | - | 0 W/m² | - |
| 1777611345 | 11.67° C | 62% | 1014.1 hPa | 0 mm | - | 0 W/m² | - |
| 1777610748 | 11.67° C | 62% | 1014.1 hPa | 0 mm | - | 0 W/m² | - |
* Rain latest hour (hover to see other rain measurements)
** Current wind speed in m/s (hover to see current wind gust speed)